Date String (YYYY-MM-DD hh:mm:ss) UTC,Instrument flags,Ambient pressure (hPa),Sample flow (lpm),Bypass flow (lpm),Sample temperature (°C),Ambient temperature (°C),ASC tube jacket temperature (°C),LED temperature (°C),Box temperature (°C),Sample RH (%),Span deviation,Mass concentration (μg/m³),Mass concentration (μg/m³),Mass concentration (μg/m³)
DateTimeUTC,F1_M11,P_M11,Q1_M11,Q2_M11,T1_M11,T2_M11,T3_M11,T4_M11,T5_M11,U1_M11,ZSPAN_M11,X0_M11,X2_M11,X1_M11
2022-07-31 18:00:00,,0830.9,5.01,0.00,29.2,26.9,00.0,37.9,31.0,25.2,0000.0,0009.98,0006.19,0005.86
2022-07-31 18:01:00,,0830.9,5.00,0.00,29.1,27.0,00.0,37.9,30.9,25.3,0000.0,0010.02,0006.22,0005.87
2022-07-31 18:02:00,,0830.9,4.99,0.00,29.1,27.1,00.0,37.8,30.8,25.6,0000.0,0010.07,0006.28,0005.89
2022-07-31 18:03:00,,0830.9,5.00,0.00,29.1,27.3,00.0,37.8,30.9,24.6,0000.0,0010.26,0006.32,0005.91
2022-07-31 18:04:00,,0830.9,5.00,0.00,29.1,27.5,00.0,37.9,31.0,24.2,0000.0,0010.33,0006.32,0005.92
2022-07-31 18:05:00,,0830.9,5.00,0.00,29.1,27.7,00.0,37.9,31.1,24.0,0000.0,0010.30,0006.33,0005.92
2022-07-31 18:06:00,,0831.0,5.01,0.00,29.2,27.9,00.0,37.9,31.1,24.0,0000.0,0010.31,0006.33,0005.91
2022-07-31 18:07:00,,0831.0,5.01,0.00,29.2,28.0,00.0,37.9,31.2,25.0,0000.0,0010.01,0006.32,0005.91
2022-07-31 18:08:00,,0831.0,5.00,0.00,29.3,28.0,00.0,37.9,31.2,25.0,0000.0,0009.46,0006.29,0005.90
2022-07-31 18:09:00,,0830.9,5.00,0.00,29.2,27.4,00.0,37.9,31.1,24.9,0000.0,0009.94,0006.28,0005.90
2022-07-31 18:10:00,,0831.0,5.01,0.00,29.2,27.0,00.0,37.9,31.0,25.4,0000.0,0010.09,0006.29,0005.89
2022-07-31 18:11:00,,0831.0,5.00,0.00,29.2,27.1,00.0,37.9,31.0,26.1,0000.0,0010.03,0006.27,0005.88
2022-07-31 18:12:00,,0831.0,5.00,0.00,29.1,27.2,00.0,37.9,30.9,25.5,0000.0,0009.97,0006.26,0005.86
2022-07-31 18:13:00,,0831.0,5.01,0.00,29.1,27.4,00.0,37.9,30.9,24.7,0000.0,0009.91,0006.25,0005.86
2022-07-31 18:14:00,,0831.0,5.01,0.00,29.1,27.5,00.0,37.9,31.0,25.1,0000.0,0010.51,0006.27,0005.84
2022-07-31 18:15:00,,0831.0,4.99,0.00,29.2,27.7,00.0,37.9,31.1,24.2,0000.0,0010.46,0006.27,0005.84
2022-07-31 18:16:00,,0831.1,5.01,0.00,29.2,27.9,00.0,37.9,31.2,24.5,0000.0,0010.42,0006.26,0005.84
2022-07-31 18:17:00,,0831.0,5.01,0.00,29.2,28.1,00.0,37.9,31.2,24.9,0000.0,0010.44,0006.27,0005.85
2022-07-31 18:18:00,,0831.1,5.00,0.00,29.3,27.8,00.0,37.9,31.1,24.5,0000.0,0010.84,0006.31,0005.84
2022-07-31 18:19:00,,0831.1,4.99,0.00,29.2,27.1,00.0,37.9,31.0,24.6,0000.0,0011.57,0006.31,0005.83
2022-07-31 18:20:00,,0831.1,4.99,0.00,29.2,27.0,00.0,37.9,31.0,24.6,0000.0,0011.48,0006.30,0005.83
2022-07-31 18:21:00,,0831.0,5.01,0.00,29.1,27.0,00.0,37.9,30.9,24.2,0000.0,0011.08,0006.27,0005.83
2022-07-31 18:22:00,,0831.1,5.00,0.00,29.1,27.2,00.0,37.8,30.9,24.9,0000.0,0010.96,0006.27,0005.84
2022-07-31 18:23:00,,0831.1,4.99,0.00,29.1,27.4,00.0,37.9,30.9,25.1,0000.0,0010.99,0006.27,0005.84
2022-07-31 18:24:00,,0831.1,5.00,0.00,29.1,27.6,00.0,37.9,31.0,25.9,0000.0,0010.94,0006.23,0005.83
2022-07-31 18:25:00,,0831.0,5.00,0.00,29.1,27.8,00.0,37.9,31.1,25.6,0000.0,0010.34,0006.22,0005.85
2022-07-31 18:26:00,,0831.0,5.00,0.00,29.2,27.9,00.0,37.9,31.2,25.6,0000.0,0010.19,0006.21,0005.85
2022-07-31 18:27:00,,0831.0,5.00,0.00,29.2,28.0,00.0,37.9,31.2,24.7,0000.0,0010.30,0006.24,0005.87
2022-07-31 18:28:00,,0831.1,5.01,0.00,29.2,27.5,00.0,37.9,31.0,24.8,0000.0,0010.27,0006.24,0005.88
2022-07-31 18:29:00,,0831.0,4.99,0.00,29.2,27.0,00.0,37.9,30.9,25.0,0000.0,0010.12,0006.24,0005.90
2022-07-31 18:30:00,,0831.0,5.01,0.00,29.1,26.9,00.0,37.8,30.9,25.2,0000.0,0009.82,0006.27,0005.92
2022-07-31 18:31:00,,0831.0,5.00,0.00,29.1,27.0,00.0,37.8,30.8,25.6,0000.0,0009.39,0006.26,0005.92
2022-07-31 18:32:00,,0831.1,5.00,0.00,29.1,27.2,00.0,37.8,30.8,25.1,0000.0,0009.37,0006.27,0005.93
2022-07-31 18:33:00,,0831.1,5.00,0.00,29.1,27.4,00.0,37.8,30.9,25.5,0000.0,0009.93,0006.27,0005.94
2022-07-31 18:34:00,,0831.1,4.99,0.00,29.1,27.6,00.0,37.8,31.0,25.8,0000.0,0010.33,0006.28,0005.96
2022-07-31 18:35:00,,0831.0,5.00,0.00,29.1,27.8,00.0,37.9,31.1,26.1,0000.0,0010.48,0006.29,0005.98
2022-07-31 18:36:00,,0831.0,5.01,0.00,29.2,28.0,00.0,37.9,31.2,26.1,0000.0,0010.57,0006.30,0005.99
2022-07-31 18:37:00,,0831.0,5.00,0.00,29.2,27.8,00.0,37.9,31.1,24.6,0000.0,0011.08,0006.30,0006.00
2022-07-31 18:38:00,,0831.0,5.00,0.00,29.2,27.1,00.0,37.9,31.0,24.7,0000.0,0011.19,0006.30,0006.01
2022-07-31 18:39:00,,0831.0,5.00,0.00,29.1,26.9,00.0,37.8,30.9,25.4,0000.0,0011.18,0006.31,0006.02
2022-07-31 18:40:00,,0831.0,5.01,0.00,29.1,26.9,00.0,37.8,30.8,25.5,0000.0,0010.99,0006.30,0006.03
2022-07-31 18:41:00,,0831.0,5.00,0.00,29.0,27.1,00.0,37.8,30.8,26.0,0000.0,0010.46,0006.28,0006.03
2022-07-31 18:42:00,,0831.0,5.00,0.00,29.0,27.3,00.0,37.8,30.8,25.6,0000.0,0010.47,0006.30,0006.04
2022-07-31 18:43:00,,0831.0,5.01,0.00,29.1,27.5,00.0,37.8,30.9,25.3,0000.0,0010.49,0006.31,0006.04
2022-07-31 18:44:00,,0831.0,4.99,0.00,29.1,27.7,00.0,37.8,31.0,26.1,0000.0,0010.09,0006.33,0006.05
2022-07-31 18:45:00,,0831.0,5.00,0.00,29.1,27.9,00.0,37.8,31.1,26.3,0000.0,0009.72,0006.35,0006.06
2022-07-31 18:46:00,,0831.0,5.00,0.00,29.2,28.0,00.0,37.9,31.2,25.7,0000.0,0009.49,0006.33,0006.04
2022-07-31 18:47:00,,0831.0,5.00,0.00,29.2,28.0,00.0,37.9,31.2,25.5,0000.0,0009.58,0006.31,0006.03
2022-07-31 18:48:00,,0831.0,5.01,0.00,29.2,27.3,00.0,37.8,31.0,25.6,0000.0,0009.93,0006.33,0006.02
2022-07-31 18:49:00,,0830.9,4.99,0.00,29.1,27.0,00.0,37.8,31.0,25.8,0000.0,0010.57,0006.30,0006.00
2022-07-31 18:50:00,,0830.9,5.01,0.00,29.1,27.0,00.0,37.8,30.9,25.7,0000.0,0010.81,0006.30,0005.98
2022-07-31 18:51:00,,0830.9,4.99,0.00,29.0,27.1,00.0,37.8,30.8,25.6,0000.0,0011.29,0006.31,0005.98
2022-07-31 18:52:00,,0830.9,5.00,0.00,29.0,27.3,00.0,37.8,30.8,25.2,0000.0,0012.18,0006.32,0005.98
2022-07-31 18:53:00,,0830.9,5.01,0.00,29.1,27.5,00.0,37.8,30.9,24.1,0000.0,0013.32,0006.35,0005.96
2022-07-31 18:54:00,,0830.9,5.01,0.00,29.1,27.7,00.0,37.8,31.0,24.1,0000.0,0013.65,0006.35,0005.94
2022-07-31 18:55:00,,0830.9,4.99,0.00,29.1,27.8,00.0,37.8,31.1,23.9,0000.0,0013.97,0006.34,0005.91
2022-07-31 18:56:00,,0830.8,5.01,0.00,29.2,28.0,00.0,37.9,31.2,24.4,0000.0,0013.87,0006.32,0005.91
2022-07-31 18:57:00,,0830.8,5.00,0.00,29.2,28.1,00.0,37.9,31.2,24.2,0000.0,0014.44,0006.33,0005.91
2022-07-31 18:58:00,,0830.8,5.00,0.00,29.2,27.8,00.0,37.9,31.2,23.6,0000.0,0014.41,0006.35,0005.92
2022-07-31 18:59:00,,0830.8,4.99,0.00,29.2,27.2,00.0,37.9,31.0,24.5,0000.0,0013.62,0006.32,0005.92
